Date,TemperatureHighF,TemperatureAvgF,TemperatureLowF,DewpointHighF,DewpointAvgF,DewpointLowF,HumidityHigh,HumidityAvg,HumidityLow,PressureMaxIn,PressureMinIn,WindSpeedMaxMPH,WindSpeedAvgMPH,GustSpeedMaxMPH,PrecipitationSumIn
2013-1-1,43,41,36,28,26,22,63,54,45,0.00,40.00,9,7,17,0.00
2013-1-2,36,31,24,22,15,12,73,51,38,0.00,40.00,9,5,18,0.00
2013-1-3,35,28,20,20,16,13,87,60,43,0.00,40.00,9,4,15,0.00
2013-1-4,41,35,29,21,20,18,70,55,42,0.00,40.00,14,7,23,0.00
2013-1-5,41,33,26,26,20,19,80,60,44,0.00,40.00,9,4,14,0.00
2013-1-6,50,39,28,33,28,23,94,66,39,0.00,40.00,9,3,14,0.00
2013-1-7,49,40,25,28,26,23,92,60,40,0.00,40.00,9,4,17,0.00
2013-1-8,52,37,24,33,29,22,94,76,45,0.00,40.00,9,2,16,0.00
2013-1-9,54,42,29,41,34,27,95,77,55,0.00,40.00,7,2,16,0.00
2013-1-10,49,42,33,35,28,25,82,59,42,0.00,40.00,9,4,17,0.00
2013-1-11,46,40,30,45,36,27,98,87,74,0.00,40.00,6,2,12,0.23
2013-1-12,57,46,42,48,44,41,99,92,72,0.00,40.00,6,2,10,0.23
2013-1-13,54,46,41,54,46,41,100,100,98,0.00,40.00,5,3,10,0.00
2013-1-14,58,54,42,58,49,38,100,86,63,0.00,40.00,8,4,15,0.18
2013-1-15,42,39,36,40,36,31,97,88,73,0.00,40.00,6,3,12,0.76
2013-1-16,40,37,35,39,36,34,98,96,95,0.00,40.00,8,3,17,0.89
2013-1-17,43,40,37,40,33,27,99,78,56,0.00,40.00,8,3,16,0.02
2013-1-18,38,32,23,28,18,6,86,58,29,0.00,40.00,12,5,23,0.00
2013-1-19,53,39,25,30,25,13,80,58,36,0.00,40.00,8,4,21,0.00
2013-1-20,58,46,34,30,23,10,65,42,25,0.00,40.00,13,8,26,0.00
2013-1-21,37,32,28,29,15,8,88,51,34,0.00,40.00,9,4,15,0.00
2013-1-22,28,21,16,19,-1,-7,69,38,27,0.00,40.00,17,11,27,0.00
2013-1-23,23,18,14,3,-3,-6,48,40,29,0.00,40.00,10,6,22,0.00
2013-1-24,26,20,15,12,3,-6,80,50,24,0.00,40.00,13,6,25,0.00
2013-1-25,24,18,12,16,6,-1,88,60,36,0.00,40.00,5,2,10,0.00
2013-1-26,30,21,9,16,12,5,88,69,46,0.00,40.00,11,5,19,0.04
2013-1-27,35,21,9,18,11,5,86,68,38,0.00,40.00,8,2,13,0.01
2013-1-28,37,32,20,36,30,15,97,89,78,0.00,40.00,6,2,12,0.12
2013-1-29,59,42,31,47,38,30,100,89,64,0.00,40.00,5,2,9,0.01
2013-1-30,70,58,36,60,53,35,100,83,64,0.00,40.00,8,4,21,0.01
2013-1-31,66,42,30,60,19,8,83,40,31,0.00,40.00,18,14,36,0.58